QPF
0.02 0.01 0.01 0.00 0.00 0.00 0.00 0.01 0.01 0.00 0.00 0.00 0.00 0.00 0.00 0.00 0.00 0.00 0.00 0.01 0.01 0.01 0.00 0.00 0.01 0.02 0.02 0.03 0.05 0.06 0.08 0.10 0.10 0.11 0.14 0.19 0.22 0.16 0.11 0.10 0.09 0.08 0.08 0.07
0.02 0.01 0.00 0.00 0.00 0.00 0.01 0.01 0.01 0.00 0.00 0.00 0.00 0.00 0.00 0.00 0.00 0.01 0.01 0.01 0.01 0.00 0.00 0.00 0.01 0.03 0.03 0.04 0.07 0.09 0.09 0.11 0.10 0.10 0.11 0.16 0.18 0.16 0.13 0.12 0.09 0.07 0.07 0.07
0.01 0.01 0.00 0.01 0.01 0.01 0.01 0.00 0.00 0.00 0.00 0.00 0.00 0.00 0.00 0.00 0.00 0.01 0.01 0.00 0.00 0.00 0.00 0.00 0.01 0.03 0.03 0.02 0.05 0.09 0.09 0.10 0.12 0.11 0.10 0.14 0.16 0.13 0.13 0.14 0.12 0.07 0.07 0.07
0.01 0.00 0.01 0.02 0.01 0.01 0.01 0.00 0.00 0.00 0.00 0.01 0.01 0.01 0.00 0.00 0.00 0.01 0.01 0.01 0.01 0.01 0.01 0.01 0.01 0.02 0.02 0.01 0.02 0.06 0.07 0.09 0.11 0.11 0.11 0.12 0.13 0.11 0.08 0.09 0.11 0.09 0.07 0.06
0.01 0.00 0.01 0.01 0.01 0.01 0.01 0.00 0.00 0.00 0.01 0.01 0.01 0.01 0.00 0.00 0.01 0.01 0.02 0.02 0.01 0.01 0.01 0.01 0.01 0.01 0.01 0.01 0.01 0.04 0.06 0.08 0.09 0.09 0.10 0.10 0.11 0.10 0.08 0.08 0.09 0.10 0.10 0.08
0.01 0.00 0.01 0.01 0.00 0.00 0.00 0.01 0.01 0.01 0.01 0.01 0.00 0.01 0.01 0.01 0.02 0.02 0.02 0.03 0.03 0.02 0.01 0.01 0.01 0.01 0.01 0.01 0.01 0.03 0.06 0.08 0.07 0.06 0.08 0.10 0.10 0.10 0.09 0.09 0.09 0.09 0.10 0.10
0.00 0.00 0.00 0.00 0.01 0.00 0.00 0.01 0.01 0.01 0.02 0.01 0.00 0.00 0.01 0.01 0.02 0.02 0.01 0.02 0.03 0.03 0.03 0.02 0.02 0.01 0.01 0.01 0.01 0.02 0.04 0.08 0.08 0.05 0.06 0.09 0.10 0.10 0.09 0.09 0.10 0.08 0.07 0.08
0.01 0.00 0.00 0.00 0.00 0.00 0.00 0.01 0.02 0.02 0.01 0.01 0.00 0.00 0.00 0.00 0.00 0.01 0.01 0.01 0.02 0.03 0.04 0.04 0.03 0.02 0.02 0.02 0.02 0.03 0.04 0.06 0.07 0.05 0.05 0.07 0.10 0.10 0.10 0.09 0.10 0.09 0.07 0.07
0.02 0.01 0.00 0.00 0.00 0.00 0.00 0.01 0.01 0.02 0.02 0.01 0.01 0.00 0.00 0.00 0.00 0.01 0.01 0.01 0.01 0.01 0.02 0.04 0.03 0.03 0.03 0.03 0.03 0.03 0.03 0.05 0.06 0.06 0.05 0.06 0.08 0.10 0.08 0.08 0.08 0.09 0.09 0.08
0.03 0.03 0.01 0.01 0.01 0.01 0.01 0.01 0.03 0.03 0.03 0.02 0.01 0.00 0.01 0.02 0.01 0.00 0.00 0.01 0.01 0.01 0.01 0.01 0.01 0.02 0.03 0.04 0.03 0.03 0.04 0.04 0.04 0.07 0.06 0.05 0.07 0.08 0.07 0.07 0.08 0.09 0.09 0.09
0.03 0.03 0.02 0.02 0.03 0.02 0.02 0.03 0.05 0.04 0.03 0.03 0.01 0.01 0.03 0.04 0.01 0.00 0.00 0.01 0.01 0.02 0.01 0.01 0.02 0.02 0.03 0.04 0.04 0.04 0.04 0.04 0.03 0.05 0.07 0.06 0.06 0.08 0.09 0.08 0.08 0.09 0.08 0.09
0.01 0.02 0.01 0.01 0.02 0.02 0.03 0.04 0.04 0.05 0.03 0.02 0.02 0.01 0.03 0.03 0.01 0.00 0.00 0.01 0.01 0.02 0.02 0.01 0.02 0.02 0.03 0.03 0.03 0.04 0.05 0.03 0.03 0.04 0.07 0.06 0.05 0.07 0.09 0.11 0.10 0.10 0.08 0.07
0.03 0.04 0.02 0.02 0.03 0.04 0.03 0.03 0.03 0.03 0.03 0.03 0.04 0.02 0.02 0.02 0.00 0.00 0.00 0.01 0.01 0.01 0.02 0.02 0.02 0.03 0.02 0.02 0.03 0.04 0.05 0.03 0.03 0.04 0.06 0.07 0.05 0.06 0.08 0.10 0.11 0.11 0.11 0.08
0.06 0.06 0.03 0.02 0.02 0.02 0.01 0.01 0.01 0.03 0.04 0.02 0.02 0.03 0.03 0.03 0.01 0.00 0.00 0.00 0.00 0.01 0.01 0.02 0.02 0.02 0.02 0.03 0.03 0.04 0.04 0.04 0.03 0.04 0.05 0.06 0.05 0.05 0.07 0.09 0.11 0.10 0.12 0.10
0.08 0.08 0.02 0.01 0.01 0.00 0.00 0.00 0.01 0.02 0.02 0.03 0.03 0.03 0.05 0.04 0.02 0.01 0.00 0.00 0.00 0.01 0.01 0.02 0.02 0.02 0.03 0.03 0.03 0.03 0.04 0.04 0.04 0.04 0.05 0.05 0.04 0.05 0.06 0.08 0.11 0.11 0.12 0.13
0.06 0.06 0.03 0.01 0.00 0.00 0.01 0.00 0.00 0.01 0.01 0.01 0.02 0.03 0.05 0.04 0.02 0.01 0.00 0.00 0.00 0.01 0.01 0.02 0.02 0.03 0.02 0.03 0.03 0.03 0.03 0.04 0.05 0.06 0.05 0.06 0.05 0.06 0.07 0.07 0.09 0.10 0.11 0.15
0.05 0.05 0.04 0.02 0.00 0.01 0.01 0.00 0.00 0.00 0.01 0.02 0.03 0.04 0.04 0.03 0.02 0.02 0.01 0.01 0.01 0.01 0.01 0.01 0.02 0.02 0.01 0.02 0.02 0.02 0.03 0.03 0.05 0.07 0.06 0.06 0.06 0.07 0.10 0.09 0.08 0.10 0.11 0.14
0.05 0.06 0.08 0.05 0.02 0.02 0.00 0.00 0.00 0.00 0.01 0.01 0.02 0.03 0.03 0.03 0.02 0.02 0.01 0.00 0.00 0.01 0.01 0.01 0.01 0.01 0.02 0.02 0.02 0.02 0.02 0.03 0.04 0.05 0.07 0.07 0.07 0.08 0.10 0.11 0.10 0.11 0.12 0.14
0.03 0.06 0.10 0.08 0.04 0.01 0.00 0.00 0.00 0.00 0.01 0.01 0.02 0.02 0.02 0.02 0.02 0.02 0.02 0.01 0.00 0.01 0.01 0.01 0.01 0.02 0.03 0.04 0.03 0.02 0.02 0.02 0.02 0.03 0.05 0.05 0.06 0.08 0.10 0.10 0.14 0.12 0.13 0.15
0.02 0.05 0.09 0.08 0.05 0.01 0.00 0.00 0.00 0.00 0.01 0.01 0.01 0.01 0.01 0.01 0.01 0.02 0.03 0.02 0.01 0.01 0.01 0.01 0.02 0.03 0.04 0.05 0.04 0.02 0.01 0.01 0.02 0.04 0.04 0.04 0.04 0.07 0.10 0.09 0.13 0.14 0.12 0.12
0.02 0.05 0.06 0.05 0.04 0.01 0.00 0.00 0.00 0.01 0.01 0.01 0.01 0.01 0.01 0.01 0.01 0.02 0.02 0.03 0.02 0.02 0.02 0.02 0.03 0.04 0.04 0.04 0.04 0.02 0.01 0.01 0.03 0.03 0.03 0.03 0.04 0.05 0.07 0.07 0.09 0.11 0.09 0.09
0.01 0.03 0.03 0.03 0.05 0.02 0.00 0.00 0.01 0.01 0.01 0.02 0.01 0.01 0.01 0.01 0.01 0.02 0.02 0.02 0.03 0.03 0.03 0.03 0.03 0.03 0.03 0.03 0.02 0.01 0.01 0.02 0.03 0.03 0.03 0.04 0.04 0.05 0.05 0.06 0.07 0.08 0.09 0.11
0.01 0.02 0.02 0.03 0.02 0.01 0.01 0.01 0.01 0.01 0.02 0.02 0.02 0.01 0.01 0.01 0.01 0.01 0.01 0.01 0.02 0.02 0.02 0.02 0.01 0.02 0.02 0.02 0.01 0.01 0.01 0.02 0.03 0.03 0.04 0.04 0.05 0.05 0.06 0.06 0.07 0.08 0.11 0.12
0.01 0.01 0.01 0.01 0.00 0.00 0.01 0.01 0.01 0.01 0.01 0.02 0.02 0.02 0.01 0.00 0.00 0.00 0.00 0.00 0.01 0.01 0.01 0.01 0.01 0.01 0.01 0.01 0.01 0.01 0.01 0.02 0.03 0.04 0.04 0.04 0.05 0.06 0.05 0.05 0.07 0.07 0.09 0.10
0.00 0.01 0.01 0.01 0.00 0.00 0.00 0.00 0.00 0.01 0.01 0.02 0.03 0.02 0.01 0.01 0.00 0.00 0.00 0.00 0.00 0.00 0.00 0.00 0.00 0.01 0.01 0.01 0.01 0.01 0.02 0.03 0.04 0.04 0.05 0.05 0.05 0.06 0.05 0.05 0.06 0.06 0.06 0.07
0.00 0.00 0.01 0.01 0.00 0.01 0.00 0.00 0.00 0.00 0.01 0.01 0.02 0.03 0.02 0.01 0.00 0.00 0.00 0.00 0.00 0.00 0.00 0.00 0.00 0.00 0.00 0.01 0.01 0.01 0.02 0.03 0.04 0.05 0.06 0.05 0.05 0.06 0.06 0.06 0.06 0.06 0.05 0.05
MSLP
1014.27 1014.11 1014.03 1014.04 1014.13 1014.29 1014.47 1014.61 1014.65 1014.57 1014.34 1013.96 1013.48 1012.94 1012.43 1011.99 1011.69 1011.54 1011.55 1011.69 1011.92 1012.19 1012.47 1012.71 1012.90 1013.03 1013.12 1013.15 1013.15 1013.11 1013.03 1012.90 1012.73 1012.51 1012.23 1011.91 1011.56 1011.18 1010.80 1010.39 1009.96 1009.47 1008.92 1008.30
1014.31 1014.18 1014.12 1014.17 1014.32 1014.52 1014.74 1014.89 1014.93 1014.80 1014.50 1014.03 1013.45 1012.82 1012.23 1011.74 1011.41 1011.26 1011.29 1011.45 1011.70 1011.98 1012.25 1012.46 1012.61 1012.68 1012.71 1012.70 1012.67 1012.63 1012.57 1012.48 1012.36 1012.17 1011.93 1011.62 1011.26 1010.86 1010.44 1010.00 1009.55 1009.07 1008.55 1007.98
1014.37 1014.27 1014.25 1014.35 1014.55 1014.79 1015.03 1015.19 1015.20 1015.01 1014.61 1014.04 1013.35 1012.62 1011.95 1011.41 1011.07 1010.94 1011.00 1011.20 1011.49 1011.80 1012.06 1012.23 1012.32 1012.32 1012.27 1012.19 1012.12 1012.07 1012.03 1011.99 1011.92 1011.78 1011.57 1011.28 1010.91 1010.49 1010.02 1009.54 1009.06 1008.58 1008.08 1007.55
1014.38 1014.31 1014.34 1014.49 1014.73 1015.02 1015.28 1015.42 1015.38 1015.12 1014.62 1013.93 1013.13 1012.31 1011.56 1010.99 1010.66 1010.56 1010.67 1010.94 1011.29 1011.62 1011.88 1012.01 1012.03 1011.95 1011.81 1011.66 1011.53 1011.46 1011.43 1011.43 1011.41 1011.33 1011.17 1010.91 1010.54 1010.08 1009.58 1009.06 1008.54 1008.04 1007.56 1007.07
1014.27 1014.23 1014.31 1014.51 1014.81 1015.13 1015.40 1015.53 1015.44 1015.09 1014.50 1013.70 1012.80 1011.88 1011.09 1010.50 1010.18 1010.13 1010.32 1010.66 1011.06 1011.43 1011.69 1011.79 1011.74 1011.57 1011.33 1011.10 1010.91 1010.80 1010.78 1010.81 1010.84 1010.83 1010.72 1010.49 1010.13 1009.66 1009.13 1008.56 1008.02 1007.50 1007.03 1006.57
1014.00 1014.01 1014.14 1014.40 1014.74 1015.10 1015.39 1015.51 1015.37 1014.96 1014.28 1013.39 1012.39 1011.41 1010.57 1009.97 1009.68 1009.68 1009.93 1010.34 1010.80 1011.20 1011.46 1011.53 1011.42 1011.16 1010.83 1010.51 1010.26 1010.11 1010.08 1010.13 1010.21 1010.25 1010.20 1010.01 1009.68 1009.22 1008.67 1008.08 1007.51 1006.98 1006.50 1006.06
1013.59 1013.66 1013.85 1014.18 1014.58 1014.98 1015.29 1015.40 1015.24 1014.77 1014.02 1013.05 1011.98 1010.94 1010.07 1009.46 1009.19 1009.22 1009.52 1009.98 1010.48 1010.90 1011.16 1011.19 1011.02 1010.69 1010.29 1009.89 1009.57 1009.39 1009.34 1009.41 1009.52 1009.61 1009.61 1009.47 1009.17 1008.73 1008.19 1007.60 1007.02 1006.48 1005.99 1005.55
1013.10 1013.23 1013.51 1013.90 1014.37 1014.83 1015.16 1015.28 1015.10 1014.59 1013.79 1012.77 1011.64 1010.56 1009.65 1009.02 1008.74 1008.78 1009.10 1009.57 1010.08 1010.50 1010.74 1010.74 1010.53 1010.14 1009.68 1009.22 1008.85 1008.63 1008.58 1008.65 1008.79 1008.91 1008.96 1008.86 1008.61 1008.20 1007.68 1007.11 1006.53 1005.99 1005.49 1005.03
1012.60 1012.82 1013.18 1013.66 1014.19 1014.70 1015.07 1015.19 1015.00 1014.47 1013.64 1012.57 1011.41 1010.28 1009.33 1008.67 1008.35 1008.36 1008.64 1009.09 1009.57 1009.96 1010.18 1010.15 1009.91 1009.49 1008.99 1008.50 1008.11 1007.87 1007.80 1007.87 1008.01 1008.16 1008.24 1008.18 1007.97 1007.61 1007.13 1006.58 1006.02 1005.48 1004.98 1004.49
1012.17 1012.48 1012.92 1013.47 1014.07 1014.61 1015.00 1015.13 1014.94 1014.39 1013.53 1012.44 1011.25 1010.08 1009.08 1008.37 1007.99 1007.94 1008.15 1008.53 1008.95 1009.29 1009.46 1009.42 1009.16 1008.74 1008.24 1007.74 1007.35 1007.10 1007.02 1007.08 1007.23 1007.39 1007.48 1007.46 1007.29 1006.97 1006.53 1006.02 1005.49 1004.96 1004.44 1003.92
1011.84 1012.22 1012.74 1013.34 1013.96 1014.52 1014.90 1015.02 1014.81 1014.25 1013.38 1012.28 1011.06 1009.87 1008.84 1008.07 1007.62 1007.48 1007.60 1007.89 1008.22 1008.50 1008.63 1008.57 1008.31 1007.91 1007.43 1006.97 1006.60 1006.36 1006.28 1006.33 1006.47 1006.62 1006.71 1006.70 1006.56 1006.28 1005.89 1005.43 1004.93 1004.41 1003.89 1003.33
1011.58 1012.02 1012.56 1013.17 1013.77 1014.30 1014.64 1014.72 1014.47 1013.90 1013.02 1011.93 1010.73 1009.55 1008.51 1007.71 1007.20 1006.97 1007.00 1007.18 1007.43 1007.64 1007.73 1007.65 1007.42 1007.06 1006.63 1006.22 1005.88 1005.67 1005.60 1005.64 1005.75 1005.88 1005.97 1005.96 1005.83 1005.59 1005.24 1004.82 1004.35 1003.85 1003.32 1002.73
1011.34 1011.77 1012.29 1012.84 1013.37 1013.81 1014.07 1014.07 1013.79 1013.20 1012.34 1011.29 1010.14 1009.01 1008.00 1007.21 1006.68 1006.41 1006.36 1006.46 1006.63 1006.78 1006.83 1006.75 1006.55 1006.23 1005.87 1005.52 1005.23 1005.05 1004.98 1005.01 1005.10 1005.20 1005.26 1005.24 1005.12 1004.90 1004.58 1004.20 1003.76 1003.28 1002.75 1002.14
1011.02 1011.40 1011.82 1012.25 1012.64 1012.94 1013.07 1012.99 1012.65 1012.05 1011.24 1010.27 1009.23 1008.21 1007.30 1006.58 1006.09 1005.82 1005.74 1005.79 1005.90 1005.99 1006.02 1005.94 1005.75 1005.49 1005.18 1004.88 1004.64 1004.48 1004.42 1004.44 1004.50 1004.57 1004.60 1004.57 1004.45 1004.24 1003.95 1003.59 1003.18 1002.72 1002.19 1001.57
1010.58 1010.83 1011.09 1011.34 1011.55 1011.67 1011.65 1011.45 1011.06 1010.49 1009.75 1008.91 1008.03 1007.19 1006.44 1005.86 1005.46 1005.25 1005.18 1005.21 1005.28 1005.34 1005.34 1005.25 1005.08 1004.84 1004.57 1004.31 1004.10 1003.96 1003.90 1003.90 1003.93 1003.97 1003.98 1003.93 1003.80 1003.61 1003.34 1003.01 1002.62 1002.18 1001.66 1001.04
1009.98 1010.06 1010.12 1010.15 1010.14 1010.06 1009.88 1009.59 1009.17 1008.63 1008.01 1007.34 1006.67 1006.05 1005.52 1005.13 1004.88 1004.76 1004.74 1004.78 1004.83 1004.85 1004.81 1004.70 1004.51 1004.27 1004.01 1003.77 1003.57 1003.43 1003.36 1003.34 1003.35 1003.37 1003.36 1003.30 1003.18 1002.99 1002.74 1002.43 1002.07 1001.64 1001.13 1000.52
1009.28 1009.15 1008.99 1008.80 1008.58 1008.31 1007.98 1007.61 1007.18 1006.71 1006.23 1005.76 1005.32 1004.95 1004.67 1004.49 1004.41 1004.40 1004.44 1004.49 1004.52 1004.50 1004.40 1004.23 1004.00 1003.73 1003.45 1003.19 1002.98 1002.83 1002.75 1002.72 1002.72 1002.73 1002.71 1002.66 1002.55 1002.38 1002.16 1001.87 1001.52 1001.11 1000.62 1000.03
1008.55 1008.23 1007.87 1007.47 1007.06 1006.63 1006.20 1005.78 1005.37 1004.99 1004.66 1004.38 1004.18 1004.05 1003.99 1004.01 1004.08 1004.17 1004.25 1004.31 1004.30 1004.21 1004.03 1003.78 1003.48 1003.15 1002.82 1002.52 1002.29 1002.13 1002.04 1002.00 1002.01 1002.02 1002.03 1001.99 1001.91 1001.77 1001.57 1001.31 1000.98 1000.58 1000.11 999.54
1007.88 1007.40 1006.88 1006.33 1005.78 1005.25 1004.76 1004.33 1003.96 1003.68 1003.49 1003.38 1003.37 1003.43 1003.54 1003.70 1003.86 1004.01 1004.10 1004.12 1004.04 1003.87 1003.60 1003.25 1002.85 1002.45 1002.06 1001.72 1001.46 1001.29 1001.20 1001.18 1001.20 1001.25 1001.29 1001.30 1001.26 1001.15 1000.98 1000.74 1000.44 1000.06 999.60 999.05
1007.32 1006.74 1006.12 1005.48 1004.86 1004.29 1003.78 1003.37 1003.06 1002.86 1002.78 1002.79 1002.90 1003.07 1003.28 1003.49 1003.69 1003.82 1003.87 1003.81 1003.64 1003.36 1002.99 1002.54 1002.06 1001.59 1001.15 1000.78 1000.51 1000.34 1000.26 1000.27 1000.34 1000.43 1000.53 1000.59 1000.59 1000.54 1000.40 1000.19 999.90 999.54 999.10 998.58
1006.87 1006.23 1005.57 1004.91 1004.28 1003.72 1003.24 1002.87 1002.61 1002.48 1002.46 1002.53 1002.68 1002.87 1003.08 1003.27 1003.41 1003.47 1003.43 1003.27 1003.00 1002.62 1002.15 1001.63 1001.09 1000.57 1000.11 999.74 999.48 999.33 999.29 999.35 999.47 999.62 999.77 999.89 999.95 999.93 999.84 999.65 999.39 999.04 998.63 998.14
1006.43 1005.79 1005.14 1004.50 1003.91 1003.40 1002.98 1002.66 1002.45 1002.35 1002.34 1002.41 1002.53 1002.66 1002.80 1002.89 1002.92 1002.86 1002.71 1002.44 1002.08 1001.62 1001.10 1000.54 999.98 999.46 999.02 998.67 998.45 998.35 998.36 998.47 998.65 998.86 999.07 999.24 999.34 999.37 999.30 999.14 998.89 998.57 998.18 997.73
1005.91 1005.28 1004.66 1004.08 1003.56 1003.12 1002.76 1002.50 1002.33 1002.24 1002.21 1002.22 1002.25 1002.28 1002.29 1002.25 1002.14 1001.96 1001.69 1001.34 1000.91 1000.42 999.88 999.34 998.82 998.35 997.96 997.68 997.52 997.48 997.56 997.73 997.96 998.21 998.46 998.66 998.80 998.85 998.80 998.66 998.43 998.12 997.76 997.34
1005.18 1004.57 1003.99 1003.47 1003.02 1002.66 1002.37 1002.17 1002.02 1001.92 1001.85 1001.79 1001.72 1001.62 1001.49 1001.31 1001.08 1000.79 1000.44 1000.05 999.61 999.13 998.65 998.18 997.74 997.36 997.07 996.87 996.79 996.81 996.94 997.15 997.41 997.69 997.96 998.17 998.32 998.38 998.33 998.20 997.98 997.70 997.36 996.98
1004.18 1003.58 1003.03 1002.56 1002.18 1001.89 1001.67 1001.51 1001.39 1001.29 1001.18 1001.05 1000.89 1000.69 1000.44 1000.16 999.84 999.50 999.12 998.74 998.34 997.94 997.55 997.19 996.87 996.61 996.43 996.32 996.31 996.39 996.55 996.77 997.04 997.31 997.56 997.77 997.90 997.95 997.90 997.76 997.55 997.28 996.97 996.63
1002.96 1002.35 1001.82 1001.39 1001.06 1000.82 1000.66 1000.54 1000.45 1000.35 1000.22 1000.06 999.85 999.59 999.29 998.96 998.62 998.27 997.93 997.60 997.29 997.00 996.74 996.51 996.32 996.17 996.08 996.05 996.09 996.19 996.36 996.56 996.80 997.04 997.25 997.42 997.52 997.54 997.48 997.34 997.13 996.87 996.58 996.26
Thickness
5574 5577 5581 5581 5575 5575 5572 5571 5576 5582 5579 5573 5582 5591 5601 5602 5597 5596 5596 5595 5593 5594 5594 5591 5588 5586 5586 5586 5589 5592 5595 5598 5601 5605 5607 5609 5611 5615 5617 5618 5622 5625 5628 5631
5572 5575 5576 5569 5563 5560 5558 5559 5570 5576 5569 5564 5575 5584 5596 5595 5591 5589 5587 5587 5585 5585 5584 5583 5581 5579 5578 5578 5581 5584 5587 5588 5591 5594 5598 5599 5601 5604 5607 5608 5612 5615 5618 5620
5571 5573 5562 5558 5557 5555 5557 5558 5563 5561 5560 5561 5559 5587 5595 5592 5586 5582 5580 5579 5579 5576 5576 5575 5573 5571 5570 5571 5572 5574 5576 5579 5581 5583 5586 5588 5591 5594 5595 5598 5602 5605 5607 5609
5562 5560 5552 5551 5553 5551 5556 5555 5548 5544 5542 5557 5550 5569 5595 5587 5580 5578 5576 5574 5571 5568 5566 5565 5563 5562 5562 5562 5562 5564 5566 5569 5572 5574 5576 5579 5583 5586 5589 5591 5593 5595 5597 5599
5561 5550 5546 5547 5550 5543 5547 5540 5536 5535 5533 5535 5547 5541 5584 5579 5575 5574 5571 5567 5564 5560 5557 5555 5554 5553 5553 5553 5553 5556 5558 5561 5564 5566 5568 5571 5574 5577 5579 5580 5583 5586 5587 5590
5547 5540 5538 5541 5537 5533 5530 5530 5531 5527 5526 5533 5549 5543 5574 5577 5571 5567 5564 5560 5557 5554 5550 5548 5546 5545 5544 5543 5544 5547 5551 5554 5557 5558 5560 5561 5565 5567 5569 5572 5574 5578 5579 5582
5542 5538 5531 5528 5529 5525 5524 5528 5535 5536 5534 5548 5541 5536 5562 5569 5561 5556 5554 5552 5548 5545 5542 5540 5538 5537 5537 5536 5536 5538 5543 5546 5548 5550 5552 5553 5556 5559 5561 5564 5567 5570 5572 5575
5536 5546 5531 5522 5526 5525 5520 5520 5524 5528 5541 5550 5536 5540 5563 5559 5552 5546 5543 5540 5538 5536 5534 5531 5530 5529 5528 5527 5528 5530 5534 5537 5539 5542 5543 5546 5547 5550 5554 5557 5560 5563 5566 5569
5527 5532 5517 5512 5511 5513 5511 5513 5510 5504 5501 5507 5538 5545 5551 5550 5544 5539 5535 5532 5530 5528 5526 5524 5522 5521 5520 5520 5520 5522 5525 5528 5530 5533 5535 5537 5539 5542 5546 5549 5552 5555 5558 5559
5508 5510 5510 5499 5495 5495 5501 5501 5493 5490 5495 5516 5536 5540 5545 5541 5536 5533 5529 5525 5524 5521 5519 5516 5514 5512 5512 5512 5514 5515 5518 5520 5523 5525 5527 5530 5532 5534 5537 5540 5545 5547 5549 5551
5492 5492 5499 5492 5494 5500 5485 5483 5485 5489 5488 5499 5517 5538 5537 5529 5526 5522 5519 5516 5513 5511 5510 5508 5506 5505 5504 5505 5506 5508 5510 5511 5514 5517 5520 5522 5524 5526 5529 5533 5537 5540 5542 5544
5480 5481 5491 5496 5490 5482 5485 5485 5480 5478 5478 5478 5492 5518 5527 5519 5514 5510 5507 5504 5502 5501 5500 5499 5498 5497 5497 5497 5497 5499 5501 5504 5506 5509 5512 5514 5516 5518 5522 5526 5529 5532 5535 5538
5465 5466 5480 5492 5479 5465 5466 5469 5467 5465 5466 5476 5481 5508 5515 5507 5504 5501 5498 5497 5495 5493 5491 5490 5489 5489 5488 5488 5489 5490 5492 5495 5498 5500 5503 5506 5507 5511 5514 5518 5521 5524 5528 5532
5460 5458 5474 5492 5494 5472 5461 5461 5457 5452 5459 5472 5482 5496 5504 5500 5497 5496 5492 5489 5487 5483 5480 5480 5480 5479 5480 5480 5480 5481 5484 5485 5487 5489 5493 5497 5499 5502 5505 5510 5513 5517 5521 5525
5446 5453 5458 5467 5468 5463 5461 5461 5455 5449 5459 5462 5480 5483 5491 5490 5487 5485 5482 5478 5475 5473 5471 5470 5469 5470 5470 5471 5472 5472 5474 5476 5477 5479 5483 5487 5490 5493 5497 5501 5504 5508 5514 5519
5432 5440 5444 5453 5458 5453 5453 5463 5461 5457 5457 5456 5460 5468 5482 5480 5476 5474 5473 5468 5464 5463 5462 5460 5460 5460 5461 5462 5463 5464 5465 5466 5468 5471 5476 5479 5482 5486 5490 5494 5498 5502 5507 5513
5425 5425 5432 5451 5452 5443 5455 5472 5467 5464 5464 5460 5460 5471 5474 5470 5467 5466 5463 5458 5454 5454 5452 5452 5452 5452 5453 5454 5455 5456 5457 5459 5460 5464 5467 5471 5474 5479 5482 5486 5491 5496 5501 5506
5416 5416 5420 5431 5430 5433 5476 5470 5466 5462 5463 5459 5457 5460 5459 5456 5456 5455 5451 5448 5447 5445 5445 5445 5445 5445 5446 5447 5448 5449 5450 5451 5454 5457 5459 5463 5467 5471 5475 5479 5485 5490 5495 5500
5414 5410 5414 5420 5426 5445 5463 5457 5448 5445 5452 5454 5449 5449 5448 5445 5444 5450 5446 5440 5438 5437 5437 5437 5437 5438 5439 5440 5441 5441 5443 5446 5448 5450 5453 5456 5460 5463 5468 5473 5478 5484 5489 5494
5402 5401 5405 5412 5416 5431 5459 5448 5438 5435 5440 5447 5439 5436 5435 5433 5437 5445 5438 5432 5431 5430 5430 5430 5430 5431 5432 5433 5434 5435 5439 5441 5443 5444 5446 5449 5452 5456 5461 5466 5472 5478 5483 5487
5391 5394 5399 5406 5410 5429 5443 5428 5423 5425 5437 5433 5427 5424 5423 5423 5425 5427 5425 5424 5422 5422 5422 5422 5422 5424 5425 5425 5426 5429 5432 5434 5436 5438 5440 5443 5446 5449 5454 5459 5464 5470 5475 5479
5398 5398 5397 5401 5401 5418 5425 5413 5417 5426 5424 5420 5417 5414 5412 5413 5414 5415 5415 5414 5413 5414 5414 5414 5416 5418 5418 5417 5418 5422 5424 5426 5428 5430 5433 5437 5440 5443 5447 5452 5457 5462 5467 5472
5394 5402 5404 5402 5414 5420 5412 5412 5413 5412 5410 5409 5408 5406 5403 5403 5405 5406 5405 5405 5406 5406 5407 5407 5408 5411 5412 5411 5412 5414 5417 5418 5420 5423 5427 5430 5433 5437 5441 5445 5449 5454 5459 5464
5387 5384 5384 5388 5402 5405 5402 5402 5401 5399 5398 5399 5397 5395 5393 5393 5396 5397 5398 5398 5399 5399 5399 5400 5401 5403 5406 5406 5406 5407 5409 5410 5413 5417 5420 5424 5427 5431 5434 5438 5442 5446 5451 5455
5385 5375 5377 5382 5393 5392 5395 5393 5393 5391 5389 5387 5386 5385 5384 5384 5386 5388 5389 5390 5391 5392 5393 5393 5394 5396 5399 5399 5400 5401 5402 5404 5407 5411 5414 5417 5420 5425 5428 5431 5434 5438 5442 5445
5378 5374 5375 5384 5390 5386 5390 5388 5385 5381 5380 5378 5377 5377 5377 5376 5377 5378 5380 5382 5384 5385 5386 5387 5388 5389 5391 5393 5394 5395 5396 5398 5401 5405 5407 5410 5414 5418 5421 5424 5428 5429 5434 5437